When you browse on this site, cookies collect data to enhance your experience and personalize the content and advertising you see.
Visit our Privacy Policy to learn more. By continuing to use the site, you agree to this use of cookies and data.
  • In Sweden
  • List of Countries
  • For 7 days
  • Water Temperature
  • Satellite Maps
  • Weather Map
  • Weather Widgets
  • user-avatar
    Login

    Hourly Weather Bakuriani

    Today, 20 July, Saturday

    Time Temperature Precipitation Wind Pressure Humidity
    00:00 +11°C° 0 mm 1 mps 592 mmHg 97%
    01:00 +11°C° 0 mm 1 mps 592 mmHg 97%
    02:00 +11°C° 0 mm 1 mps 592 mmHg 97%
    03:00 +10°C° 0 mm 1 mps 592 mmHg 97%
    04:00 +11°C° 0 mm 1 mps 592 mmHg 96%
    05:00 +10°C° 0 mm 0 mps 593 mmHg 96%
    06:00 +10°C° 0 mm 0 mps 593 mmHg 95%
    07:00 +12°C° 0 mm 0 mps 593 mmHg 90%
    08:00 +14°C° 0 mm 1 mps 594 mmHg 84%
    09:00 +16°C° 0 mm 1 mps 594 mmHg 79%
    10:00 +18°C° 0 mm 1 mps 595 mmHg 75%
    11:00 +18°C° 0 mm 2 mps 595 mmHg 72%
    12:00 +19°C° 0 mm 2 mps 596 mmHg 68%
    13:00 +19°C° 0 mm 2 mps 595 mmHg 68%
    14:00 +19°C° 0 mm 2 mps 595 mmHg 68%
    15:00 +19°C° 0 mm 2 mps 595 mmHg 67%
    16:00 +19°C° 0 mm 2 mps 595 mmHg 70%
    17:00 +18°C° 0 mm 2 mps 595 mmHg 73%
    18:00 +18°C° 0 mm 2 mps 595 mmHg 76%
    19:00 +16°C° 0 mm 2 mps 594 mmHg 81%
    20:00 +14°C° 0 mm 2 mps 594 mmHg 86%
    21:00 +13°C° 0 mm 2 mps 593 mmHg 91%
    22:00 +12°C° 0 mm 2 mps 593 mmHg 91%
    23:00 +12°C° 0 mm 2 mps 593 mmHg 91%

    Tomorrow, 21 July, Sunday

    Time Temperature Precipitation Wind Pressure Humidity
    00:00 +12°C° 0 mm 2 mps 593 mmHg 91%
    01:00 +12°C° 0 mm 2 mps 593 mmHg 91%
    02:00 +10°C° 0 mm 2 mps 593 mmHg 90%
    03:00 +10°C° 0 mm 2 mps 592 mmHg 89%
    04:00 +10°C° 0 mm 2 mps 593 mmHg 88%
    05:00 +12°C° 0 mm 2 mps 593 mmHg 86%
    06:00 +12°C° 0 mm 2 mps 593 mmHg 85%
    07:00 +14°C° 0 mm 2 mps 594 mmHg 77%
    08:00 +16°C° 0 mm 3 mps 594 mmHg 69%
    09:00 +18°C° 0 mm 3 mps 595 mmHg 61%
    10:00 +19°C° 0 mm 3 mps 595 mmHg 59%
    11:00 +20°C° 0 mm 3 mps 596 mmHg 57%
    12:00 +21°C° 0 mm 4 mps 596 mmHg 55%
    13:00 +22°C° 0 mm 3 mps 596 mmHg 55%
    14:00 +22°C° 0 mm 3 mps 596 mmHg 55%
    15:00 +22°C° 0 mm 3 mps 595 mmHg 56%
    16:00 +21°C° 0.1 mm 3 mps 595 mmHg 62%
    17:00 +19°C° 0.1 mm 3 mps 594 mmHg 68%
    18:00 +18°C° 0.1 mm 3 mps 594 mmHg 75%
    19:00 +16°C° 0 mm 2 mps 593 mmHg 80%
    20:00 +14°C° 0 mm 2 mps 593 mmHg 86%
    21:00 +12°C° 0 mm 2 mps 592 mmHg 92%
    22:00 +12°C° 0 mm 1 mps 592 mmHg 92%
    23:00 +12°C° 0 mm 1 mps 592 mmHg 91%

    Day after tomorrow, 22 July, Monday

    Time Temperature Precipitation Wind Pressure Humidity
    00:00 +11°C° 0 mm 1 mps 592 mmHg 91%
    01:00 +11°C° 0 mm 1 mps 592 mmHg 91%
    02:00 +11°C° 0 mm 1 mps 591 mmHg 91%
    03:00 +11°C° 0 mm 1 mps 591 mmHg 91%
    04:00 +11°C° 0 mm 1 mps 591 mmHg 91%
    05:00 +11°C° 0 mm 1 mps 592 mmHg 91%
    06:00 +11°C° 0 mm 0 mps 592 mmHg 91%
    07:00 +13°C° 0 mm 1 mps 592 mmHg 86%
    08:00 +15°C° 0 mm 1 mps 593 mmHg 81%
    09:00 +16°C° 0 mm 1 mps 593 mmHg 77%
    10:00 +17°C° 0 mm 2 mps 593 mmHg 74%
    11:00 +18°C° 0 mm 2 mps 594 mmHg 70%
    12:00 +19°C° 0 mm 2 mps 594 mmHg 67%
    13:00 +19°C° 0.2 mm 2 mps 593 mmHg 68%
    14:00 +19°C° 0.2 mm 2 mps 593 mmHg 70%
    15:00 +19°C° 0.2 mm 3 mps 593 mmHg 71%
    16:00 +18°C° 1 mm 2 mps 592 mmHg 79%
    17:00 +17°C° 1 mm 2 mps 592 mmHg 86%
    18:00 +15°C° 1 mm 2 mps 591 mmHg 93%
    19:00 +14°C° 0.5 mm 2 mps 591 mmHg 95%
    20:00 +14°C° 0.5 mm 2 mps 591 mmHg 97%
    21:00 +13°C° 0.5 mm 1 mps 591 mmHg 98%
    22:00 +13°C° 0.1 mm 1 mps 591 mmHg 98%
    23:00 +13°C° 0.1 mm 1 mps 591 mmHg 98%

    23 July, Tuesday

    Time Temperature Precipitation Wind Pressure Humidity
    00:00 +12°C° 0.1 mm 1 mps 591 mmHg 98%
    01:00 +12°C° 0 mm 1 mps 591 mmHg 98%
    02:00 +12°C° 0 mm 1 mps 591 mmHg 98%
    03:00 +11°C° 0 mm 0 mps 590 mmHg 97%
    04:00 +11°C° 0 mm 0 mps 590 mmHg 97%
    05:00 +12°C° 0 mm 1 mps 590 mmHg 97%
    06:00 +12°C° 0 mm 1 mps 590 mmHg 96%
    07:00 +13°C° 0 mm 1 mps 591 mmHg 91%
    08:00 +14°C° 0 mm 1 mps 591 mmHg 87%
    09:00 +16°C° 0 mm 1 mps 591 mmHg 82%
    10:00 +16°C° 0 mm 2 mps 591 mmHg 78%
    11:00 +17°C° 0 mm 2 mps 591 mmHg 75%
    12:00 +18°C° 0 mm 2 mps 592 mmHg 71%
    13:00 +18°C° 0.1 mm 2 mps 591 mmHg 72%
    14:00 +18°C° 0.1 mm 2 mps 591 mmHg 73%
    15:00 +19°C° 0.1 mm 2 mps 591 mmHg 74%
    16:00 +18°C° 0.1 mm 2 mps 591 mmHg 79%
    17:00 +17°C° 0.1 mm 2 mps 591 mmHg 84%
    18:00 +16°C° 0.1 mm 2 mps 590 mmHg 89%
    19:00 +15°C° 0.3 mm 2 mps 590 mmHg 92%
    20:00 +14°C° 0.3 mm 1 mps 590 mmHg 95%
    21:00 +13°C° 0.3 mm 1 mps 590 mmHg 98%
    22:00 +13°C° 0.3 mm 1 mps 590 mmHg 98%
    23:00 +13°C° 0.3 mm 1 mps 590 mmHg 98%

    24 July, Wednesday

    Time Temperature Precipitation Wind Pressure Humidity
    00:00 +13°C° 0.3 mm 1 mps 590 mmHg 98%
    01:00 +13°C° 0.2 mm 1 mps 589 mmHg 98%
    02:00 +12°C° 0.2 mm 1 mps 589 mmHg 98%
    03:00 +12°C° 0.2 mm 1 mps 589 mmHg 98%
    04:00 +12°C° 0 mm 1 mps 589 mmHg 98%
    05:00 +12°C° 0 mm 1 mps 589 mmHg 98%
    06:00 +12°C° 0 mm 1 mps 589 mmHg 97%
    07:00 +13°C° 0 mm 1 mps 589 mmHg 94%
    08:00 +14°C° 0 mm 1 mps 590 mmHg 91%
    09:00 +15°C° 0 mm 1 mps 590 mmHg 87%
    10:00 +16°C° 0.1 mm 2 mps 590 mmHg 83%
    11:00 +17°C° 0.1 mm 2 mps 591 mmHg 78%
    12:00 +18°C° 0.1 mm 2 mps 591 mmHg 74%
    13:00 +18°C° 0.2 mm 2 mps 591 mmHg 73%
    14:00 +18°C° 0.2 mm 3 mps 591 mmHg 72%
    15:00 +18°C° 0.2 mm 3 mps 591 mmHg 71%
    16:00 +17°C° 0.2 mm 3 mps 590 mmHg 78%
    17:00 +16°C° 0.2 mm 3 mps 590 mmHg 85%
    18:00 +14°C° 0.2 mm 2 mps 589 mmHg 91%
    19:00 +13°C° 0.1 mm 2 mps 589 mmHg 93%
    20:00 +13°C° 0.1 mm 2 mps 590 mmHg 95%
    21:00 +12°C° 0.1 mm 1 mps 590 mmHg 97%
    22:00 +12°C° 0 mm 1 mps 590 mmHg 97%
    23:00 +11°C° 0 mm 1 mps 590 mmHg 97%

    25 July, Thursday

    Time Temperature Precipitation Wind Pressure Humidity
    00:00 +11°C° 0 mm 1 mps 590 mmHg 98%
    01:00 +11°C° 0.1 mm 1 mps 590 mmHg 97%
    02:00 +11°C° 0.1 mm 1 mps 589 mmHg 97%
    03:00 +11°C° 0.1 mm 1 mps 589 mmHg 97%
    04:00 +11°C° 0.1 mm 1 mps 589 mmHg 97%
    05:00 +11°C° 0.1 mm 1 mps 590 mmHg 97%
    06:00 +11°C° 0.1 mm 1 mps 590 mmHg 97%
    07:00 +12°C° 0.1 mm 1 mps 590 mmHg 93%
    08:00 +12°C° 0.1 mm 2 mps 590 mmHg 90%
    09:00 +13°C° 0.1 mm 2 mps 591 mmHg 87%
    10:00 +14°C° 0.2 mm 2 mps 591 mmHg 85%
    11:00 +14°C° 0.2 mm 2 mps 591 mmHg 83%
    12:00 +15°C° 0.2 mm 2 mps 591 mmHg 81%
    13:00 +13°C° 0.2 mm 3 mps 591 mmHg 83%
    14:00 +13°C° 0.2 mm 3 mps 590 mmHg 86%
    15:00 +12°C° 0.2 mm 3 mps 590 mmHg 88%
    16:00 +11°C° 0 mm 3 mps 590 mmHg 89%
    17:00 +12°C° 0 mm 2 mps 590 mmHg 91%
    18:00 +10°C° 0 mm 2 mps 589 mmHg 92%
    19:00 +9°C° 0 mm 2 mps 589 mmHg 93%
    20:00 +9°C° 0 mm 2 mps 589 mmHg 95%
    21:00 +8°C° 0 mm 2 mps 589 mmHg 97%
    22:00 +8°C° 0 mm 2 mps 589 mmHg 96%
    23:00 +8°C° 0 mm 2 mps 589 mmHg 96%
    Show more